Date String (YYYY-MM-DD hh:mm:ss) UTC,Instrument flags,absolute air pressure of the measurement (hPa),sample flow rate (lpm),inlet stack bypass flow (lpm),air temperature of the measurement (°C),ambient temperature measured by the external sensor (°C),aerosol sample conditioner tube jacket temperature (°C),OPC LED temperature (°C),internal box temperature (°C),relative humidity of the measurement (%),span deviation,mass concentration of particles derived from Lorenz-Mie calculation of OPC scattering (μg/m³),mass concentration of particles derived from Lorenz-Mie calculation of OPC scattering (μg/m³),mass concentration of particles derived from Lorenz-Mie calculation of OPC scattering (μg/m³)
DateTimeUTC,F1_M11,P_M11,Q1_M11,Q2_M11,T1_M11,T2_M11,T3_M11,T4_M11,T5_M11,U1_M11,ZSPAN_M11,X0_M11,X2_M11,X1_M11
2024-04-16 20:00:00,SystemResetWarning,0823.0,5.00,000.00,026.4,025.8,000.0,034.7,028.2,012.3,0000.0,0002.35,0001.36,0000.97
2024-04-16 20:01:00,SystemResetWarning,0823.1,5.01,000.00,026.5,025.8,000.0,034.7,028.3,012.4,0000.0,0002.25,0001.32,0000.97
2024-04-16 20:02:00,SystemResetWarning,0823.0,5.00,000.00,026.5,025.8,000.0,034.8,028.3,012.5,0000.0,0002.09,0001.30,0000.97
2024-04-16 20:03:00,SystemResetWarning,0822.9,4.99,000.00,026.5,025.8,000.0,034.8,028.3,012.8,0000.0,0001.98,0001.27,0000.97
2024-04-16 20:04:00,SystemResetWarning,0823.0,5.00,000.00,026.5,025.8,000.0,034.8,028.3,012.9,0000.0,0002.45,0001.30,0000.96
2024-04-16 20:05:00,SystemResetWarning,0823.0,5.01,000.00,026.5,025.8,000.0,034.8,028.3,013.0,0000.0,0003.83,0001.34,0000.94
2024-04-16 20:06:00,SystemResetWarning,0823.0,5.01,000.00,026.5,025.8,000.0,034.8,028.3,012.7,0000.0,0004.04,0001.31,0000.92
2024-04-16 20:07:00,SystemResetWarning,0823.0,4.99,000.00,026.5,025.8,000.0,034.8,028.3,012.7,0000.0,0003.95,0001.27,0000.90
2024-04-16 20:08:00,SystemResetWarning,0823.0,5.00,000.00,026.5,025.8,000.0,034.8,028.3,012.6,0000.0,0003.94,0001.25,0000.88
2024-04-16 20:09:00,SystemResetWarning,0822.8,5.00,000.00,026.5,025.8,000.0,034.8,028.3,012.7,0000.0,0003.89,0001.23,0000.85
2024-04-16 20:10:00,SystemResetWarning,0822.8,5.01,000.00,026.5,025.9,000.0,034.8,028.3,012.6,0000.0,0003.93,0001.19,0000.81
2024-04-16 20:11:00,SystemResetWarning,0822.8,5.01,000.00,026.6,025.9,000.0,034.9,028.3,012.7,0000.0,0004.25,0001.17,0000.76
2024-04-16 20:12:00,SystemResetWarning,0823.0,5.01,000.00,026.6,025.9,000.0,034.9,028.3,012.6,0000.0,0004.38,0001.12,0000.70
2024-04-16 20:13:00,SystemResetWarning,0822.9,5.00,000.00,026.6,025.9,000.0,034.9,028.4,012.8,0000.0,0004.28,0001.05,0000.64
2024-04-16 20:14:00,SystemResetWarning,0822.9,4.98,000.00,026.6,025.9,000.0,034.9,028.4,013.0,0000.0,0004.18,0000.98,0000.58
2024-04-16 20:15:00,SystemResetWarning,0822.9,5.00,000.00,026.6,025.9,000.0,034.9,028.4,012.7,0000.0,0003.57,0000.88,0000.54
2024-04-16 20:16:00,SystemResetWarning,0823.0,5.01,000.00,026.6,025.9,000.0,034.9,028.4,012.5,0000.0,0002.07,0000.77,0000.52
2024-04-16 20:17:00,SystemResetWarning,0823.0,5.00,000.00,026.6,025.9,000.0,034.9,028.4,012.8,0000.0,0001.73,0000.72,0000.48
2024-04-16 20:18:00,SystemResetWarning,0823.0,4.99,000.00,026.6,025.9,000.0,034.9,028.4,013.0,0000.0,0001.71,0000.70,0000.45
2024-04-16 20:19:00,SystemResetWarning,0823.1,5.00,000.00,026.6,025.9,000.0,034.9,028.4,013.0,0000.0,0001.66,0000.67,0000.43
2024-04-16 20:20:00,SystemResetWarning,0823.2,5.01,000.00,026.6,025.9,000.0,034.9,028.4,013.0,0000.0,0001.54,0000.60,0000.39
2024-04-16 20:21:00,SystemResetWarning,0823.3,5.01,000.00,026.6,025.9,000.0,034.9,028.4,012.8,0000.0,0001.43,0000.57,0000.38
2024-04-16 20:22:00,SystemResetWarning,0823.2,4.99,000.00,026.6,025.9,000.0,034.9,028.4,012.3,0000.0,0001.04,0000.53,0000.39
2024-04-16 20:23:00,SystemResetWarning,0823.3,4.99,000.00,026.6,025.9,000.0,035.0,028.4,012.4,0000.0,0000.80,0000.53,0000.41
2024-04-16 20:24:00,SystemResetWarning,0823.3,5.00,000.00,026.6,025.9,000.0,035.0,028.4,012.8,0000.0,0000.89,0000.57,0000.43
2024-04-16 20:25:00,SystemResetWarning,0823.3,5.01,000.00,026.7,025.9,000.0,035.0,028.4,013.1,0000.0,0000.90,0000.58,0000.43
2024-04-16 20:26:00,SystemResetWarning,0823.2,5.00,000.00,026.7,025.9,000.0,035.0,028.5,014.1,0000.0,0000.87,0000.57,0000.43
2024-04-16 20:27:00,SystemResetWarning,0823.2,5.00,000.00,026.7,026.0,000.0,035.0,028.5,014.3,0000.0,0000.89,0000.59,0000.44
2024-04-16 20:28:00,SystemResetWarning,0823.2,4.99,000.00,026.6,025.4,000.0,035.0,028.1,014.2,0000.0,0000.94,0000.61,0000.44
2024-04-16 20:29:00,SystemResetWarning,0823.2,5.00,000.00,026.3,023.4,000.0,035.1,026.9,014.3,0000.0,0000.96,0000.62,0000.44
2024-04-16 20:30:00,SystemResetWarning,0823.1,5.02,000.00,025.9,022.6,000.0,035.0,026.5,015.0,0000.0,0000.98,0000.63,0000.45
2024-04-16 20:31:00,SystemResetWarning,0823.1,5.00,000.00,025.7,022.9,000.0,034.8,026.6,015.4,0000.0,0001.01,0000.65,0000.47
2024-04-16 20:32:00,SystemResetWarning,0823.1,4.99,000.00,025.7,023.2,000.0,034.7,026.8,015.2,0000.0,0001.04,0000.67,0000.48
2024-04-16 20:33:00,SystemResetWarning,0823.1,5.00,000.00,025.7,023.6,000.0,034.6,027.1,015.2,0000.0,0001.07,0000.68,0000.50
2024-04-16 20:34:00,SystemResetWarning,0823.2,5.01,000.00,025.7,023.9,000.0,034.5,027.2,015.0,0000.0,0001.10,0000.70,0000.50
2024-04-16 20:35:00,SystemResetWarning,0823.2,4.99,000.00,025.7,024.1,000.0,034.5,027.4,015.3,0000.0,0001.21,0000.74,0000.50
2024-04-16 20:36:00,SystemResetWarning,0823.1,4.99,000.00,025.7,024.3,000.0,034.4,027.4,015.4,0000.0,0001.25,0000.76,0000.52
2024-04-16 20:37:00,SystemResetWarning,0823.0,5.00,000.00,025.7,024.5,000.0,034.4,027.5,015.3,0000.0,0001.25,0000.76,0000.53
2024-04-16 20:38:00,SystemResetWarning,0823.0,5.00,000.00,025.8,024.6,000.0,034.4,027.5,015.1,0000.0,0001.35,0000.77,0000.53
2024-04-16 20:39:00,SystemResetWarning,0823.0,5.00,000.00,025.8,024.8,000.0,034.4,027.6,015.0,0000.0,0001.42,0000.78,0000.53
2024-04-16 20:40:00,SystemResetWarning,0822.9,5.00,000.00,025.8,024.9,000.0,034.3,027.6,015.0,0000.0,0001.40,0000.78,0000.55
2024-04-16 20:41:00,SystemResetWarning,0822.9,5.00,000.00,025.9,025.0,000.0,034.3,027.7,014.3,0000.0,0001.43,0000.80,0000.57
2024-04-16 20:42:00,SystemResetWarning,0822.8,4.99,000.00,025.9,025.0,000.0,034.3,027.7,013.9,0000.0,0001.57,0000.85,0000.58
2024-04-16 20:43:00,SystemResetWarning,0823.0,4.99,000.00,025.9,025.1,000.0,034.3,027.7,013.6,0000.0,0001.64,0000.88,0000.59
2024-04-16 20:44:00,SystemResetWarning,0822.9,4.99,000.00,025.9,025.1,000.0,034.3,027.8,013.8,0000.0,0001.74,0000.94,0000.61
2024-04-16 20:45:00,SystemResetWarning,0823.1,4.99,000.00,026.0,025.2,000.0,034.3,027.8,013.3,0000.0,0001.91,0001.02,0000.63
2024-04-16 20:46:00,SystemResetWarning,0823.0,5.00,000.00,026.0,025.3,000.0,034.3,027.9,013.7,0000.0,0001.99,0001.08,0000.65
2024-04-16 20:47:00,SystemResetWarning,0822.9,5.01,000.00,026.0,025.3,000.0,034.3,027.9,013.7,0000.0,0002.00,0001.11,0000.68
2024-04-16 20:48:00,SystemResetWarning,0822.9,5.00,000.00,026.1,025.3,000.0,034.4,027.9,013.7,0000.0,0002.21,0001.21,0000.71
2024-04-16 20:49:00,SystemResetWarning,0822.8,5.00,000.00,026.1,025.4,000.0,034.4,027.9,013.5,0000.0,0002.51,0001.32,0000.76
2024-04-16 20:50:00,SystemResetWarning,0822.9,5.01,000.00,026.1,025.4,000.0,034.4,027.9,013.5,0000.0,0002.58,0001.38,0000.80
2024-04-16 20:51:00,SystemResetWarning,0823.0,5.01,000.00,026.1,025.4,000.0,034.4,027.9,013.3,0000.0,0003.03,0001.43,0000.84
2024-04-16 20:52:00,SystemResetWarning,0822.8,5.00,000.00,026.1,025.5,000.0,034.4,028.0,013.1,0000.0,0003.56,0001.56,0000.90
2024-04-16 20:53:00,SystemResetWarning,0823.1,4.99,000.00,026.2,025.5,000.0,034.4,028.0,013.2,0000.0,0003.73,0001.61,0000.94
2024-04-16 20:54:00,SystemResetWarning,0822.8,4.99,000.00,026.2,025.5,000.0,034.4,028.0,013.0,0000.0,0003.97,0001.72,0000.99
2024-04-16 20:55:00,SystemResetWarning,0822.9,5.01,000.00,026.2,025.6,000.0,034.4,028.0,012.9,0000.0,0005.11,0001.88,0001.05
2024-04-16 20:56:00,SystemResetWarning,0823.0,5.01,000.00,026.2,025.6,000.0,034.5,028.1,013.0,0000.0,0007.22,0001.95,0001.09
2024-04-16 20:57:00,SystemResetWarning,0823.0,5.00,000.00,026.3,025.6,000.0,034.5,028.1,012.9,0000.0,0007.59,0002.02,0001.13
2024-04-16 20:58:00,SystemResetWarning,0822.9,5.00,000.00,026.3,025.6,000.0,034.5,028.1,012.9,0000.0,0007.72,0002.12,0001.19
2024-04-16 20:59:00,SystemResetWarning,0822.9,4.99,000.00,026.3,025.6,000.0,034.5,028.1,013.0,0000.0,0007.83,0002.15,0001.24
